Location: Newark
(45.8667°N, 9.7333°E)
Time: 01:12:02
(UTC+00:00)

Vanguard 2 Rocket - Pass Details

Date: 02 February 2020
Orbit: 553 x 3327 km, 32.9° (Epoch: 27 February)

Event Time Altitude Azimuth Distance (km) Brightness Sun altitude
Rises 01:56:10 0° 220° (SW) 3,015 - -48.8°
Reaches altitude 10° 02:01:02 10° 172° (S) 1,849 - -48.1°
Maximum altitude 02:01:22 10° 168° (SSE) 1,836 - -48.1°
Drops below altitude 10° 02:01:41 10° 163° (SSE) 1,834 - -48.0°
Sets 02:06:13 0° 114° (ESE) 2,765 - -47.3°
